Погода в Жирекене

Россия / Забайкальский край     52°49′09″N   117°17′24″E
темп.,
°C
ветер,
м/с
пор.,
м/с
влажн.,
%
обл.,
%
осадки,
мм/ч
давл.,
гПа
погр.,
м
17 апреля, сб
сб1700:00−1ююз22335 0.0 101414
03:00−3ююз223831 0.0 101435
06:00−4ююз26495 0.0 1013117
09:00+2юз364021 0.0 1011422
12:00+9юз56325 0.0 1008893
15:00+13зюз572483 0.0 10041739
18:00+15зюз58205 0.0 10022475
21:00+7юз223629 0.0 100417
18 апреля, вс
вс1800:00+5ю2242100 0.0 100412
03:00+3ююз114777 0.0 100410
06:00+1юз115211 0.0 100410
09:00+8юз1337100 0.0 1003233
12:00+13з4729100 0.0 10021966
15:00+12сз673598 0.0 10022020
18:00+10ссз463220 0.0 10042060
21:00+3с583448 0.0 10121107
19 апреля, пн
пн1900:00−2с5104110 0.0 1017574
03:00−5с36443 0.0 1021279
06:00−7ссз25420 0.0 1023132
09:00−3с23320 0.0 10241012
12:00+2ссз23160 0.0 10231819
15:00+4сз24101 0.0 10202197
18:00+4зсз12102 0.0 10192009
21:00−1ю221853 0.0 102012
20 апреля, вт
вт2000:00−1в2220100 0.0 101927
03:00−2в222622 0.3 101535
06:00−4в213532 0.0 101413
09:00+4зюз272499 0.0 1011568
12:00+9юз4626100 0.0 1009941
15:00+12зсз341899 0.0 10081584
18:00+11ссз4524100 0.0 10081173
21:00+5ссз1144100 0.0 101210
21 апреля, ср
ср2100:00+4всв0050100 0.0 101310
03:00+3ссв2246100 0.0 101320
06:000св2253100 0.0 101438
09:00+5всв2537100 0.0 1012369
12:00+10всв3428100 0.0 10101033
15:00+12в3329100 0.0 10071971
18:00+11вюв3340100 0.0 10061656
21:00+5в2773100 0.0 1009186